Regional Weather Roundup
Issued by NWS

Home | Current Version | Previous Version | Text Only | Print | Product List | Glossary On
Versions: 1 2 3 4 5 6 7 8 9 10 11 12 13 14 15 16 17 18 19 20 21 22 23 24 25 26 27 28 29 30 31 32 33 34 35 36 37 38 39 40 41 42 43 44 45 46 47 48 49 50
524
ASCA42 TJSJ 250110
RWRPR
PUERTO RICO/U.S. VIRGIN ISLANDS HOURLY WEATHER ROUNDUP
NATIONAL WEATHER SERVICE SAN JUAN PR
900 PM AST TUE MAY 24 2016

PRZ001-004-250200-
PUERTO RICO

CITY           SKY/WX    TMP DP  RH WIND       PRES   REMARKS
SAN JUAN LMM   PTCLDY    81  77  89 E6        30.11R
CEIBA          CLOUDY    81  75  83 E8        30.12S
$$

PRZ006-007-250200-
U.S. VIRGIN ISLANDS

CITY           SKY/WX    TMP DP  RH WIND       PRES   REMARKS
CHARLOTTE AMA  CLEAR     82  73  74 E12       30.10R
CHRISTIANSTED  PTCLDY    81  75  83 E9        30.11R
$$

HOURLY WEATHER ROUNDUP FOR THE NEWS MEDIA

CITY           SKY/WX    TMP DP  RH WIND       PRES   REMARKS
ORLANDO        CLEAR     77  58  51 E10       30.13R
NEW YORK       CLOUDY    70  50  49 CALM      29.97R
NEWARK         CLOUDY    70  50  49 N6        29.96R
CHICAGO        CLOUDY    82  52  35 S9        29.92S
HARTFORD       CLOUDY    54  52  93 VRB5      29.94R
BOSTON         CLOUDY    53  50  89 N10       29.96R
DALLAS         MOCLDY    85  72  65 S14       29.88F HX  91
PHILADELPHIA   CLOUDY    78  47  33 W9        29.94R
LOS ANGELES    MOSUNNY   63  54  72 W16       30.02R
WASHINGTON DC  FAIR      68  53  58 CALM      30.03R



USA.gov is the U.S. government's official web portal to all federal, state and local government web resources and services.